Location: Gro�bocka
(50.8204°N, 11.9702°E)
Time: 22:50:14
(UTC+00:00)

X-37B - Pass Details

Date: 28 June 2021
Orbit: 383 x 392 km, 45.0° (Epoch: 01 July)

Event Time Altitude Azimuth Distance (km) Brightness Sun altitude
Rises 20:28:10 0° 253° (WSW) 2,257 4.8 -7.3°
Reaches altitude 10° 20:30:23 10° 241° (WSW) 1,403 3.5 -7.5°
Maximum altitude 20:33:09 28° 180° (S) 751 1.6 -7.8°
Drops below altitude 10° 20:35:55 10° 118° (ESE) 1,402 2.8 -8.0°
Enters shadow 20:36:06 - 117° (ESE) 1,471 3.0 -8.0°
